QPF
0.00 0.00 0.00 0.00 0.00 0.00 0.00 0.00 0.00 0.00 0.00 0.00 0.00 0.00 0.00 0.00 0.00 0.00 0.00 0.00 0.00 0.00 0.00 0.00 0.00 0.00 0.00 0.00 0.00 0.00 0.00 0.01 0.02 0.05 0.06 0.00 0.00 0.00 0.00 0.00 0.00 0.00 0.00 0.00 0.00
0.00 0.00 0.00 0.00 0.00 0.00 0.00 0.00 0.00 0.00 0.00 0.00 0.00 0.00 0.00 0.00 0.00 0.00 0.00 0.00 0.00 0.00 0.00 0.00 0.00 0.00 0.00 0.00 0.00 0.00 0.01 0.01 0.00 0.04 0.11 0.01 0.00 0.00 0.00 0.00 0.00 0.00 0.00 0.00 0.00
0.00 0.00 0.00 0.00 0.00 0.00 0.00 0.00 0.00 0.00 0.00 0.00 0.00 0.00 0.00 0.00 0.00 0.00 0.00 0.00 0.00 0.00 0.00 0.00 0.00 0.00 0.00 0.00 0.00 0.01 0.06 0.03 0.00 0.00 0.03 0.01 0.00 0.00 0.00 0.00 0.00 0.00 0.00 0.00 0.00
0.00 0.00 0.00 0.00 0.00 0.00 0.00 0.00 0.00 0.00 0.00 0.00 0.00 0.00 0.00 0.00 0.00 0.00 0.00 0.00 0.00 0.00 0.00 0.00 0.00 0.00 0.00 0.00 0.00 0.01 0.05 0.02 0.03 0.03 0.00 0.01 0.00 0.00 0.00 0.00 0.00 0.00 0.00 0.00 0.00
0.00 0.00 0.00 0.00 0.00 0.00 0.00 0.00 0.00 0.00 0.00 0.00 0.00 0.00 0.00 0.00 0.00 0.00 0.00 0.00 0.00 0.00 0.00 0.00 0.00 0.00 0.00 0.00 0.00 0.00 0.04 0.01 0.01 0.01 0.01 0.08 0.02 0.02 0.03 0.00 0.00 0.00 0.00 0.00 0.00
0.00 0.00 0.00 0.00 0.00 0.00 0.00 0.00 0.00 0.00 0.00 0.00 0.00 0.00 0.00 0.00 0.00 0.00 0.00 0.00 0.00 0.00 0.00 0.00 0.00 0.00 0.00 0.00 0.00 0.00 0.00 0.00 0.00 0.00 0.02 0.13 0.04 0.09 0.09 0.00 0.00 0.00 0.00 0.00 0.00
0.00 0.00 0.00 0.00 0.00 0.00 0.00 0.00 0.00 0.00 0.00 0.00 0.00 0.00 0.00 0.00 0.00 0.00 0.00 0.00 0.00 0.00 0.00 0.00 0.00 0.00 0.00 0.00 0.01 0.01 0.00 0.00 0.00 0.01 0.05 0.08 0.26 0.13 0.17 0.03 0.04 0.00 0.00 0.00 0.00
0.00 0.00 0.00 0.00 0.00 0.00 0.00 0.00 0.00 0.00 0.00 0.00 0.00 0.00 0.00 0.00 0.00 0.00 0.00 0.00 0.00 0.00 0.00 0.00 0.00 0.00 0.00 0.00 0.01 0.04 0.02 0.00 0.00 0.00 0.01 0.03 0.16 0.16 0.13 0.10 0.03 0.00 0.00 0.00 0.00
0.00 0.00 0.00 0.00 0.00 0.00 0.00 0.00 0.00 0.00 0.00 0.00 0.00 0.00 0.00 0.00 0.00 0.00 0.00 0.00 0.00 0.00 0.00 0.00 0.00 0.00 0.00 0.00 0.00 0.00 0.01 0.01 0.00 0.00 0.01 0.01 0.01 0.10 0.26 0.14 0.07 0.00 0.00 0.00 0.00
0.00 0.01 0.00 0.00 0.01 0.00 0.00 0.00 0.00 0.00 0.00 0.00 0.00 0.00 0.00 0.00 0.00 0.00 0.00 0.00 0.00 0.00 0.00 0.00 0.00 0.00 0.00 0.00 0.00 0.00 0.00 0.00 0.01 0.00 0.01 0.01 0.02 0.05 0.17 0.20 0.05 0.01 0.00 0.00 0.00
0.01 0.01 0.00 0.00 0.00 0.00 0.00 0.00 0.00 0.00 0.00 0.00 0.00 0.00 0.00 0.00 0.00 0.00 0.00 0.00 0.00 0.00 0.00 0.00 0.00 0.00 0.00 0.00 0.00 0.00 0.00 0.01 0.00 0.00 0.00 0.00 0.03 0.02 0.03 0.12 0.04 0.01 0.00 0.00 0.00
0.00 0.00 0.01 0.00 0.00 0.00 0.00 0.00 0.00 0.00 0.00 0.00 0.00 0.00 0.00 0.00 0.00 0.00 0.00 0.00 0.00 0.00 0.00 0.00 0.00 0.00 0.00 0.00 0.00 0.00 0.01 0.00 0.03 0.02 0.00 0.00 0.00 0.01 0.02 0.02 0.00 0.00 0.00 0.00 0.00
0.00 0.01 0.01 0.00 0.00 0.00 0.00 0.00 0.00 0.00 0.00 0.00 0.00 0.00 0.00 0.00 0.00 0.00 0.00 0.00 0.00 0.00 0.00 0.00 0.00 0.00 0.00 0.00 0.00 0.00 0.01 0.02 0.02 0.02 0.00 0.00 0.00 0.00 0.02 0.03 0.02 0.00 0.00 0.00 0.00
0.01 0.01 0.01 0.00 0.00 0.00 0.00 0.00 0.00 0.00 0.00 0.00 0.00 0.00 0.00 0.00 0.00 0.00 0.00 0.00 0.00 0.00 0.00 0.00 0.00 0.00 0.00 0.00 0.00 0.00 0.00 0.00 0.01 0.02 0.02 0.01 0.01 0.00 0.00 0.01 0.02 0.00 0.00 0.00 0.00
0.01 0.01 0.01 0.00 0.00 0.00 0.00 0.00 0.00 0.00 0.00 0.00 0.00 0.00 0.00 0.00 0.00 0.00 0.00 0.00 0.00 0.00 0.00 0.00 0.00 0.00 0.00 0.00 0.00 0.00 0.00 0.01 0.01 0.01 0.00 0.00 0.00 0.00 0.00 0.00 0.00 0.00 0.00 0.00 0.00
0.00 0.00 0.00 0.00 0.00 0.00 0.00 0.00 0.00 0.00 0.00 0.00 0.00 0.00 0.00 0.00 0.00 0.00 0.00 0.00 0.00 0.00 0.00 0.00 0.00 0.00 0.00 0.00 0.00 0.00 0.01 0.02 0.02 0.02 0.01 0.00 0.00 0.00 0.00 0.00 0.00 0.00 0.00 0.00 0.00
0.00 0.00 0.00 0.00 0.00 0.00 0.00 0.00 0.00 0.00 0.00 0.00 0.00 0.00 0.00 0.00 0.00 0.00 0.00 0.00 0.00 0.00 0.00 0.00 0.00 0.00 0.00 0.00 0.00 0.00 0.00 0.01 0.03 0.01 0.00 0.00 0.00 0.00 0.00 0.00 0.00 0.00 0.00 0.00 0.00
0.00 0.00 0.00 0.00 0.00 0.00 0.00 0.00 0.00 0.00 0.00 0.00 0.00 0.00 0.00 0.00 0.00 0.00 0.00 0.00 0.00 0.00 0.00 0.00 0.00 0.00 0.00 0.00 0.00 0.00 0.00 0.01 0.02 0.01 0.01 0.00 0.01 0.00 0.00 0.00 0.00 0.00 0.00 0.00 0.00
0.00 0.00 0.00 0.00 0.00 0.00 0.00 0.00 0.00 0.00 0.00 0.00 0.00 0.00 0.00 0.00 0.00 0.00 0.00 0.00 0.00 0.00 0.00 0.00 0.00 0.00 0.00 0.00 0.00 0.00 0.00 0.01 0.01 0.01 0.01 0.00 0.00 0.00 0.00 0.00 0.00 0.00 0.00 0.00 0.00
0.00 0.00 0.00 0.00 0.00 0.00 0.00 0.00 0.00 0.00 0.00 0.00 0.00 0.00 0.00 0.00 0.00 0.00 0.00 0.00 0.00 0.00 0.00 0.00 0.00 0.00 0.00 0.00 0.00 0.00 0.00 0.02 0.02 0.05 0.01 0.00 0.00 0.00 0.00 0.00 0.00 0.00 0.00 0.00 0.00
0.00 0.00 0.00 0.00 0.00 0.00 0.00 0.00 0.00 0.00 0.00 0.00 0.00 0.00 0.00 0.00 0.00 0.00 0.00 0.00 0.00 0.00 0.00 0.00 0.00 0.00 0.00 0.01 0.01 0.01 0.00 0.01 0.00 0.01 0.02 0.01 0.00 0.00 0.00 0.00 0.00 0.00 0.00 0.00 0.00
0.00 0.00 0.00 0.00 0.00 0.00 0.00 0.00 0.00 0.00 0.00 0.00 0.00 0.00 0.00 0.00 0.00 0.00 0.00 0.00 0.00 0.00 0.00 0.00 0.00 0.00 0.00 0.00 0.00 0.01 0.00 0.00 0.00 0.00 0.00 0.00 0.00 0.00 0.00 0.00 0.00 0.00 0.00 0.00 0.00
0.00 0.00 0.00 0.00 0.00 0.00 0.00 0.00 0.00 0.00 0.00 0.00 0.00 0.00 0.00 0.00 0.00 0.00 0.00 0.00 0.00 0.01 0.00 0.00 0.00 0.00 0.01 0.01 0.01 0.00 0.00 0.00 0.00 0.00 0.00 0.00 0.00 0.00 0.00 0.00 0.00 0.00 0.00 0.00 0.00
0.00 0.00 0.00 0.00 0.00 0.00 0.00 0.00 0.00 0.00 0.00 0.00 0.00 0.00 0.00 0.00 0.00 0.00 0.00 0.00 0.00 0.00 0.00 0.00 0.00 0.00 0.00 0.01 0.01 0.00 0.00 0.00 0.00 0.00 0.00 0.00 0.00 0.00 0.00 0.00 0.00 0.00 0.00 0.00 0.00
0.00 0.00 0.00 0.00 0.00 0.00 0.00 0.00 0.00 0.00 0.00 0.00 0.00 0.00 0.00 0.00 0.00 0.00 0.00 0.00 0.00 0.00 0.00 0.00 0.00 0.00 0.00 0.00 0.00 0.00 0.00 0.00 0.00 0.00 0.00 0.00 0.00 0.00 0.01 0.00 0.00 0.00 0.00 0.00 0.01
0.00 0.00 0.00 0.00 0.00 0.00 0.00 0.00 0.00 0.00 0.00 0.00 0.00 0.00 0.00 0.00 0.00 0.00 0.00 0.00 0.00 0.00 0.00 0.00 0.00 0.00 0.00 0.00 0.00 0.00 0.00 0.00 0.00 0.00 0.00 0.00 0.00 0.00 0.01 0.01 0.00 0.00 0.01 0.00 0.00
0.00 0.00 0.00 0.00 0.00 0.00 0.00 0.00 0.00 0.00 0.00 0.00 0.00 0.00 0.00 0.00 0.00 0.00 0.00 0.00 0.00 0.00 0.00 0.00 0.00 0.00 0.00 0.00 0.00 0.00 0.00 0.00 0.00 0.00 0.00 0.00 0.00 0.00 0.00 0.02 0.01 0.03 0.06 0.06 0.02
MSLP
1017.81 1017.58 1017.31 1017.07 1016.85 1016.64 1016.46 1016.24 1016.00 1015.78 1015.56 1015.36 1015.23 1015.10 1014.82 1014.52 1014.09 1013.87 1012.57 1010.81 1010.67 1010.55 1010.60 1010.67 1010.70 1010.56 1010.43 1010.25 1010.38 1010.55 1010.90 1011.65 1011.99 1012.42 1012.51 1012.00 1011.57 1011.76 1011.94 1012.11 1012.51 1013.07 1013.30 1014.01 1015.31
1017.72 1017.47 1017.21 1016.97 1016.74 1016.53 1016.34 1016.14 1015.96 1015.75 1015.51 1015.32 1015.12 1014.98 1014.73 1014.46 1013.97 1012.66 1010.71 1010.51 1010.50 1010.59 1010.46 1010.34 1010.33 1010.34 1010.09 1010.20 1010.29 1010.35 1010.72 1011.29 1011.78 1012.49 1012.84 1012.48 1012.04 1011.87 1012.19 1012.28 1013.05 1013.65 1014.30 1014.84 1015.53
1017.67 1017.39 1017.10 1016.82 1016.58 1016.40 1016.20 1015.98 1015.81 1015.65 1015.41 1015.20 1015.04 1014.82 1014.58 1014.38 1013.23 1010.70 1010.04 1010.33 1010.52 1010.62 1010.45 1010.34 1010.29 1010.17 1009.96 1010.17 1010.28 1010.52 1010.74 1011.52 1012.17 1012.44 1012.68 1012.89 1012.42 1012.22 1012.41 1012.49 1012.88 1013.22 1014.21 1014.98 1015.48
1017.59 1017.31 1017.03 1016.73 1016.44 1016.24 1016.04 1015.82 1015.71 1015.57 1015.34 1015.16 1014.96 1014.68 1014.39 1014.10 1012.15 1010.16 1010.04 1010.37 1010.76 1010.78 1010.53 1010.30 1010.34 1010.09 1010.00 1009.97 1010.24 1010.50 1011.32 1011.57 1012.27 1012.69 1013.17 1013.22 1012.89 1012.69 1012.83 1012.88 1012.90 1013.60 1014.06 1014.89 1015.41
1017.57 1017.26 1016.95 1016.66 1016.35 1016.09 1015.85 1015.63 1015.48 1015.39 1015.19 1015.02 1014.81 1014.56 1014.21 1012.98 1010.92 1010.04 1009.81 1010.45 1010.89 1010.94 1010.67 1010.40 1010.17 1010.13 1009.96 1010.20 1010.39 1010.66 1011.40 1012.12 1012.52 1012.93 1013.41 1013.66 1013.82 1013.23 1013.35 1013.28 1013.62 1014.19 1014.69 1014.91 1015.35
1017.55 1017.23 1016.93 1016.66 1016.39 1016.11 1015.82 1015.57 1015.38 1015.13 1015.02 1014.89 1014.72 1014.47 1013.78 1011.87 1010.56 1010.45 1010.32 1010.76 1010.80 1010.85 1010.82 1010.59 1010.21 1010.13 1010.17 1010.40 1010.64 1011.34 1011.90 1012.49 1013.02 1013.38 1013.68 1014.03 1014.52 1014.20 1014.48 1014.02 1014.20 1014.49 1014.65 1014.93 1015.26
1017.59 1017.28 1017.00 1016.68 1016.35 1016.02 1015.69 1015.41 1015.19 1014.97 1014.82 1014.70 1014.52 1014.21 1013.08 1011.43 1010.70 1010.75 1010.69 1010.87 1010.97 1010.88 1010.75 1010.73 1010.49 1010.15 1010.24 1010.44 1011.20 1011.42 1012.07 1012.62 1013.43 1013.79 1014.28 1014.59 1015.12 1015.04 1015.01 1014.63 1014.42 1014.61 1014.73 1015.02 1015.26
1017.64 1017.31 1017.02 1016.64 1016.21 1015.84 1015.51 1015.11 1014.72 1014.58 1014.61 1014.52 1014.38 1013.94 1011.84 1010.73 1010.87 1010.84 1010.84 1011.11 1011.24 1011.12 1010.95 1010.85 1010.67 1010.33 1010.24 1010.70 1011.16 1011.32 1011.89 1012.43 1013.63 1014.00 1014.48 1014.79 1015.08 1015.35 1015.59 1015.12 1014.52 1014.64 1014.74 1014.80 1014.96
1017.68 1017.32 1016.91 1016.48 1016.08 1015.72 1015.31 1014.77 1014.17 1014.21 1014.37 1014.38 1014.22 1013.32 1011.05 1010.77 1010.72 1010.59 1010.61 1010.77 1011.22 1011.27 1011.13 1010.87 1010.63 1010.48 1010.46 1010.25 1010.72 1011.34 1011.51 1012.31 1013.55 1014.03 1014.35 1014.63 1014.86 1015.03 1015.63 1015.41 1014.39 1014.47 1014.40 1014.40 1014.70
1017.51 1017.20 1016.81 1016.31 1015.91 1015.56 1015.09 1014.59 1014.25 1014.19 1014.27 1014.17 1013.73 1013.00 1010.63 1010.25 1010.11 1010.55 1010.69 1010.74 1010.89 1011.14 1010.93 1010.81 1010.72 1010.37 1010.37 1010.07 1009.93 1010.66 1011.39 1012.30 1012.97 1013.95 1014.28 1014.63 1014.92 1015.32 1015.47 1015.56 1014.87 1014.30 1014.08 1014.05 1014.05
1017.24 1016.92 1016.52 1016.05 1015.66 1015.43 1014.87 1014.42 1014.39 1013.97 1013.36 1012.55 1012.08 1011.31 1010.28 1009.80 1009.92 1010.27 1010.40 1010.49 1010.65 1010.79 1010.50 1010.87 1010.27 1009.66 1009.96 1010.15 1010.32 1010.60 1011.17 1011.71 1013.06 1013.74 1014.11 1014.37 1014.76 1015.14 1015.44 1015.29 1014.73 1014.10 1013.67 1013.59 1013.42
1017.04 1016.61 1016.15 1015.72 1015.38 1015.08 1014.92 1013.64 1013.39 1013.30 1012.46 1011.48 1011.28 1010.73 1010.09 1009.76 1009.57 1010.02 1010.18 1010.07 1010.26 1010.39 1010.71 1010.79 1009.97 1010.09 1010.26 1010.48 1010.53 1010.70 1011.16 1011.91 1012.73 1013.47 1013.85 1014.21 1014.23 1014.76 1014.87 1014.44 1014.13 1013.68 1013.34 1013.07 1013.39
1016.81 1016.34 1015.88 1015.44 1015.02 1014.80 1014.14 1013.20 1012.90 1012.72 1012.22 1010.79 1010.23 1009.84 1009.49 1009.54 1009.11 1009.40 1009.65 1009.71 1009.90 1010.21 1010.25 1009.92 1009.83 1010.04 1009.96 1010.19 1010.35 1010.74 1010.90 1011.45 1012.04 1012.97 1013.57 1013.84 1013.61 1013.90 1014.13 1014.08 1013.86 1013.52 1013.14 1012.80 1012.88
1016.59 1016.09 1015.63 1015.12 1015.15 1014.33 1013.41 1012.84 1012.76 1012.66 1011.47 1010.37 1009.39 1009.01 1009.21 1009.05 1009.00 1009.02 1009.18 1009.14 1009.56 1009.77 1009.99 1009.77 1009.85 1009.78 1009.75 1009.68 1009.95 1010.18 1010.71 1011.42 1011.95 1012.33 1012.84 1013.05 1013.10 1013.03 1013.12 1013.29 1013.16 1012.61 1012.47 1012.35 1012.49
1016.34 1015.84 1015.49 1015.29 1014.65 1013.79 1013.10 1012.82 1012.61 1012.31 1010.77 1009.75 1008.86 1008.55 1008.72 1008.68 1008.80 1008.85 1008.96 1008.82 1009.02 1009.39 1009.85 1009.51 1009.47 1009.51 1009.44 1009.36 1009.90 1010.16 1010.70 1011.35 1011.90 1012.15 1012.53 1012.78 1012.71 1011.73 1012.15 1012.10 1011.89 1011.78 1011.84 1011.71 1011.90
1015.97 1015.56 1015.32 1015.11 1014.81 1013.15 1012.84 1012.59 1012.37 1011.55 1010.19 1009.18 1008.64 1008.40 1008.44 1008.50 1008.48 1008.62 1008.60 1008.61 1009.12 1009.21 1009.40 1009.18 1009.45 1009.30 1009.10 1009.48 1009.56 1010.38 1010.94 1011.57 1011.85 1011.98 1011.68 1011.49 1011.74 1010.05 1010.78 1010.11 1010.46 1010.75 1010.83 1010.95 1011.23
1015.42 1015.02 1015.01 1014.28 1013.44 1012.88 1012.68 1012.10 1011.57 1010.59 1010.26 1009.34 1008.68 1008.46 1008.41 1008.43 1008.52 1008.52 1008.55 1008.64 1008.74 1008.95 1008.96 1009.00 1008.98 1009.15 1009.27 1009.51 1010.04 1009.98 1010.39 1011.00 1011.52 1011.46 1010.93 1011.35 1011.38 1009.24 1009.25 1009.34 1009.08 1009.23 1009.94 1010.39 1010.75
1014.70 1014.33 1014.24 1013.54 1013.23 1012.89 1012.12 1011.73 1010.92 1010.50 1009.76 1009.33 1008.95 1008.63 1008.52 1008.65 1008.80 1008.74 1008.76 1008.59 1008.86 1008.99 1008.78 1008.50 1008.69 1008.62 1008.84 1008.74 1008.89 1009.43 1009.51 1009.89 1010.21 1010.29 1010.42 1011.12 1009.82 1008.85 1008.90 1008.42 1008.33 1008.72 1009.30 1010.13 1010.49
1014.10 1013.88 1013.51 1012.82 1012.97 1013.24 1011.93 1011.14 1010.66 1010.20 1009.71 1009.23 1008.91 1008.70 1008.73 1008.80 1008.79 1008.86 1008.69 1008.63 1008.59 1008.70 1008.70 1008.50 1008.22 1008.61 1008.57 1008.78 1008.95 1009.52 1009.81 1010.35 1010.25 1010.46 1009.98 1009.55 1009.25 1008.65 1008.47 1008.54 1008.73 1008.79 1009.29 1009.77 1010.25
1014.09 1013.24 1012.72 1012.59 1012.70 1012.26 1011.50 1011.11 1010.75 1010.33 1009.77 1009.32 1008.89 1009.08 1008.87 1008.95 1008.92 1008.96 1008.83 1008.63 1008.49 1008.71 1008.73 1008.57 1008.31 1008.40 1008.61 1008.78 1009.22 1008.81 1009.25 1009.93 1010.25 1009.98 1009.33 1008.89 1009.05 1009.04 1009.02 1009.25 1009.11 1008.96 1009.10 1009.50 1010.30
1013.85 1012.92 1012.57 1012.57 1012.51 1011.64 1011.09 1010.93 1010.45 1009.80 1009.65 1009.26 1009.06 1009.07 1009.17 1009.19 1009.24 1009.14 1009.04 1008.78 1008.60 1008.58 1008.85 1008.65 1008.64 1008.79 1008.77 1008.58 1008.50 1009.35 1009.01 1009.40 1010.09 1009.86 1009.02 1008.95 1008.98 1009.96 1010.09 1009.87 1009.36 1009.08 1009.19 1009.48 1010.07
1014.23 1012.98 1012.45 1012.44 1012.15 1012.13 1011.15 1010.87 1010.43 1009.56 1009.31 1009.03 1009.11 1009.07 1009.24 1009.45 1009.36 1009.27 1009.05 1008.95 1008.91 1008.72 1008.73 1009.17 1008.75 1008.44 1008.77 1009.09 1009.04 1008.90 1008.92 1008.86 1008.58 1009.06 1009.37 1009.33 1009.38 1010.14 1010.54 1010.15 1009.48 1009.18 1009.19 1009.53 1009.91
1015.20 1013.75 1012.33 1012.00 1011.63 1011.51 1011.15 1010.52 1010.00 1009.31 1008.96 1008.92 1009.10 1009.27 1009.55 1009.60 1009.79 1009.54 1009.26 1009.08 1009.10 1008.93 1009.07 1009.13 1009.14 1009.03 1008.93 1009.14 1009.35 1009.39 1009.61 1009.42 1009.06 1009.16 1009.25 1009.41 1009.65 1010.39 1010.84 1010.70 1010.43 1009.93 1009.63 1009.46 1009.83
1015.80 1014.07 1012.66 1012.16 1011.93 1011.19 1010.84 1010.24 1009.70 1009.31 1009.07 1009.03 1009.21 1009.33 1009.58 1009.80 1009.98 1009.67 1009.41 1009.31 1009.32 1009.26 1009.52 1009.63 1009.86 1009.93 1009.46 1009.81 1010.00 1009.84 1009.87 1009.79 1009.27 1008.92 1009.31 1009.85 1010.25 1010.74 1011.42 1011.50 1011.19 1010.81 1010.25 1009.95 1010.22
1015.99 1014.51 1013.95 1012.65 1011.95 1011.30 1010.91 1010.37 1009.54 1009.13 1009.10 1009.14 1009.31 1009.32 1009.50 1009.71 1009.93 1009.83 1009.69 1009.47 1009.54 1009.72 1009.82 1009.91 1010.04 1010.55 1010.63 1010.38 1009.96 1010.49 1010.05 1010.15 1009.86 1009.82 1009.75 1010.64 1010.98 1011.89 1012.52 1012.49 1012.24 1011.90 1011.25 1010.67 1011.10
1016.30 1015.26 1014.34 1013.14 1012.33 1011.58 1011.10 1010.21 1009.51 1009.03 1008.94 1008.90 1008.99 1009.35 1009.65 1009.72 1009.83 1009.96 1010.08 1010.02 1009.92 1009.82 1010.08 1010.48 1010.76 1010.96 1011.08 1011.01 1011.01 1010.68 1009.97 1010.81 1010.69 1010.65 1010.70 1011.14 1011.56 1012.51 1012.89 1012.92 1012.89 1012.68 1012.29 1011.65 1011.79
1016.77 1016.18 1015.29 1013.47 1012.39 1011.60 1010.55 1009.96 1009.51 1009.28 1009.04 1008.86 1008.87 1009.45 1009.85 1009.94 1010.24 1010.67 1010.81 1010.80 1010.57 1010.61 1010.73 1010.93 1011.11 1011.39 1011.27 1011.51 1011.29 1011.33 1011.37 1011.41 1011.28 1011.30 1011.30 1011.27 1012.10 1012.82 1013.31 1013.56 1013.72 1013.72 1013.60 1013.21 1012.84
Thickness
5737 5738 5739 5740 5741 5742 5743 5743 5744 5745 5746 5747 5748 5748 5750 5752 5756 5757 5765 5784 5786 5789 5789 5787 5784 5783 5784 5780 5783 5781 5753 5737 5738 5737 5739 5764 5763 5772 5775 5765 5767 5764 5762 5762 5753
5735 5736 5737 5738 5739 5740 5740 5741 5742 5742 5743 5745 5746 5747 5748 5750 5754 5760 5782 5783 5785 5786 5785 5781 5775 5778 5774 5774 5776 5769 5758 5754 5760 5750 5741 5755 5761 5764 5761 5761 5754 5753 5757 5756 5751
5733 5734 5736 5737 5738 5738 5738 5739 5739 5739 5741 5742 5744 5745 5747 5748 5756 5773 5784 5782 5782 5783 5785 5784 5780 5777 5768 5771 5771 5767 5757 5761 5757 5757 5752 5751 5759 5770 5760 5753 5759 5756 5753 5753 5750
5732 5733 5734 5735 5736 5736 5736 5737 5737 5737 5738 5740 5741 5743 5745 5747 5751 5776 5780 5779 5777 5778 5780 5776 5772 5766 5761 5761 5771 5760 5762 5765 5758 5759 5753 5749 5762 5759 5760 5757 5768 5765 5763 5755 5749
5731 5732 5733 5734 5735 5735 5735 5735 5735 5735 5736 5737 5739 5740 5743 5751 5759 5775 5777 5773 5771 5771 5769 5768 5764 5762 5757 5761 5765 5761 5760 5757 5761 5759 5753 5752 5747 5755 5751 5763 5765 5761 5757 5755 5751
5730 5730 5731 5731 5732 5732 5733 5733 5734 5735 5735 5734 5735 5736 5741 5748 5766 5767 5769 5766 5766 5765 5762 5765 5763 5766 5759 5758 5758 5758 5755 5752 5753 5753 5753 5740 5738 5744 5743 5760 5758 5756 5756 5757 5753
5728 5728 5728 5729 5730 5730 5731 5732 5733 5733 5732 5732 5732 5734 5738 5747 5759 5759 5761 5758 5760 5760 5755 5761 5765 5762 5762 5755 5760 5757 5743 5747 5744 5745 5739 5744 5726 5731 5739 5754 5754 5754 5756 5755 5754
5725 5726 5726 5727 5728 5729 5729 5731 5733 5733 5730 5730 5729 5730 5741 5755 5753 5754 5755 5751 5753 5755 5755 5759 5761 5758 5759 5762 5752 5746 5747 5733 5735 5740 5740 5739 5724 5726 5739 5743 5752 5754 5754 5756 5757
5723 5724 5725 5726 5726 5727 5728 5731 5733 5731 5728 5726 5727 5729 5738 5751 5746 5751 5752 5744 5744 5745 5749 5753 5752 5745 5753 5750 5739 5739 5732 5731 5725 5736 5735 5735 5728 5739 5736 5737 5751 5754 5758 5759 5758
5722 5722 5723 5724 5725 5725 5727 5729 5728 5727 5725 5723 5724 5726 5742 5738 5745 5743 5746 5744 5736 5734 5734 5734 5733 5732 5739 5743 5725 5728 5728 5729 5726 5728 5731 5728 5725 5729 5730 5732 5740 5752 5759 5760 5760
5722 5722 5722 5723 5724 5724 5725 5728 5730 5728 5725 5731 5731 5730 5736 5745 5745 5736 5740 5735 5732 5726 5716 5720 5721 5726 5732 5736 5736 5737 5733 5729 5722 5727 5726 5725 5726 5726 5730 5729 5736 5750 5759 5761 5764
5721 5722 5723 5723 5723 5722 5721 5733 5729 5725 5718 5730 5727 5728 5735 5738 5728 5729 5735 5721 5716 5705 5710 5710 5713 5724 5726 5726 5729 5730 5725 5721 5726 5724 5727 5723 5727 5727 5731 5738 5748 5751 5758 5764 5764
5720 5721 5721 5722 5722 5722 5725 5729 5728 5725 5713 5726 5731 5729 5733 5733 5726 5722 5726 5716 5707 5700 5702 5707 5717 5723 5723 5721 5721 5721 5724 5725 5727 5725 5722 5722 5726 5725 5732 5736 5745 5753 5759 5767 5768
5718 5719 5720 5722 5722 5722 5727 5727 5725 5723 5708 5716 5725 5731 5731 5731 5718 5730 5726 5718 5704 5698 5701 5709 5717 5716 5716 5720 5728 5716 5730 5726 5720 5722 5713 5728 5703 5724 5736 5736 5740 5755 5760 5767 5770
5717 5718 5718 5716 5721 5726 5726 5724 5724 5721 5677 5719 5722 5742 5731 5723 5722 5718 5727 5718 5700 5700 5701 5702 5708 5709 5709 5722 5727 5721 5729 5722 5722 5717 5714 5711 5709 5732 5735 5736 5743 5753 5762 5770 5774
5716 5717 5715 5715 5713 5725 5725 5724 5722 5701 5675 5708 5721 5718 5716 5718 5718 5720 5719 5723 5715 5704 5704 5709 5717 5717 5722 5724 5732 5726 5716 5713 5714 5713 5705 5724 5719 5738 5726 5746 5754 5757 5766 5773 5776
5717 5718 5715 5717 5727 5723 5723 5722 5700 5685 5706 5702 5708 5714 5711 5709 5708 5711 5706 5701 5695 5685 5687 5701 5709 5719 5724 5713 5720 5724 5716 5692 5688 5695 5706 5717 5709 5742 5753 5757 5765 5765 5765 5772 5776
5719 5720 5719 5720 5720 5721 5724 5709 5683 5694 5697 5710 5708 5709 5703 5706 5702 5704 5700 5697 5703 5699 5694 5693 5691 5714 5724 5726 5721 5720 5725 5707 5685 5697 5712 5712 5715 5743 5758 5770 5773 5770 5771 5767 5770
5720 5720 5721 5723 5720 5715 5716 5693 5691 5697 5704 5702 5705 5699 5698 5703 5703 5700 5700 5699 5706 5709 5694 5692 5702 5719 5725 5728 5729 5712 5707 5720 5705 5705 5708 5725 5734 5753 5761 5760 5762 5761 5761 5763 5769
5718 5722 5722 5720 5718 5718 5707 5688 5694 5700 5705 5705 5693 5696 5690 5696 5697 5697 5697 5710 5708 5712 5715 5709 5701 5719 5722 5729 5724 5727 5731 5705 5704 5686 5695 5722 5725 5728 5738 5742 5750 5755 5756 5761 5762
5716 5720 5719 5716 5715 5713 5698 5693 5696 5708 5706 5702 5696 5693 5694 5693 5694 5693 5695 5709 5715 5715 5714 5714 5708 5707 5719 5717 5720 5712 5717 5716 5709 5708 5705 5709 5725 5734 5729 5739 5745 5756 5756 5756 5757
5705 5710 5714 5713 5704 5685 5696 5693 5698 5705 5708 5708 5704 5700 5695 5694 5693 5694 5695 5703 5717 5718 5710 5709 5711 5705 5709 5717 5723 5725 5719 5726 5716 5708 5709 5713 5725 5737 5733 5743 5752 5757 5761 5761 5758
5690 5694 5710 5710 5695 5692 5692 5697 5701 5704 5705 5703 5699 5699 5695 5692 5686 5691 5698 5712 5714 5712 5708 5711 5701 5693 5699 5711 5716 5709 5710 5712 5719 5716 5707 5711 5723 5737 5734 5738 5744 5749 5753 5760 5759
5680 5692 5697 5697 5690 5696 5691 5693 5695 5703 5701 5700 5698 5699 5691 5686 5685 5687 5693 5704 5708 5708 5701 5707 5693 5685 5691 5691 5699 5699 5705 5707 5718 5717 5711 5709 5714 5725 5722 5725 5734 5740 5748 5752 5748
5669 5679 5675 5685 5686 5689 5688 5688 5692 5692 5700 5698 5691 5693 5691 5683 5681 5681 5690 5697 5702 5698 5700 5702 5684 5684 5687 5693 5699 5693 5702 5706 5707 5707 5711 5703 5705 5710 5710 5714 5722 5730 5739 5747 5740
5661 5666 5670 5674 5673 5679 5674 5683 5688 5693 5695 5693 5691 5689 5688 5685 5687 5680 5685 5687 5687 5697 5691 5690 5674 5679 5675 5686 5687 5688 5699 5695 5699 5701 5703 5702 5702 5707 5711 5715 5716 5720 5726 5735 5736
5643 5646 5654 5663 5669 5672 5682 5686 5686 5689 5693 5697 5696 5687 5682 5687 5689 5685 5684 5681 5684 5682 5680 5679 5673 5667 5666 5671 5679 5676 5679 5684 5689 5693 5697 5696 5698 5701 5700 5703 5705 5708 5711 5717 5726